,,,PA_Meas_PMT16A,,PR_Meas_QMR101_102,,RH_Meas_QMH101,,SR_Meas_QMS101,,TA_Meas_QMH101,,GenWind,,GenWind,
date,time,status,PA,status,PR,status,RH,status,SR,status,TA,status,DirAvg,status,SpdAvg,
2010-02-10, 00:00:04,VALID,1009.64,VALID,0,VALID,92.3021,VALID,0,VALID,24.8244,VALID,88,VALID,0,
2010-02-10, 00:01:04,VALID,1009.65,VALID,0,VALID,92.3021,VALID,0,VALID,24.8049,VALID,88,VALID,0,
2010-02-10, 00:02:04,VALID,1009.66,VALID,0,VALID,92.3097,VALID,0,VALID,24.8049,VALID,88,VALID,0,
2010-02-10, 00:03:04,VALID,1009.67,VALID,0,VALID,92.3174,VALID,0,VALID,24.8049,VALID,88,VALID,0,
2010-02-10, 00:04:04,VALID,1009.7,VALID,0,VALID,92.3174,VALID,0,VALID,24.8049,VALID,88,VALID,0,
2010-02-10, 00:05:04,VALID,1009.7,VALID,0,VALID,92.325,VALID,0,VALID,24.7854,VALID,88,VALID,0,
2010-02-10, 00:06:04,VALID,1009.76,VALID,0,VALID,92.3097,VALID,0,VALID,24.7854,VALID,88,VALID,0,
2010-02-10, 00:07:04,VALID,1009.72,VALID,0,VALID,92.3021,VALID,0,VALID,24.7659,VALID,88,VALID,0,
2010-02-10, 00:08:04,VALID,1009.76,VALID,0,VALID,92.3021,VALID,0,VALID,24.7659,VALID,88,VALID,0,
2010-02-10, 00:09:04,VALID,1009.74,VALID,0,VALID,92.2945,VALID,0,VALID,24.7464,VALID,88,VALID,0,
2010-02-10, 00:10:04,VALID,1009.75,VALID,0,VALID,92.3021,VALID,0,VALID,24.7269,VALID,88,VALID,0,
2010-02-10, 00:11:04,VALID,1009.74,VALID,0,VALID,92.2869,VALID,0,VALID,24.7269,VALID,88,VALID,0,
2010-02-10, 00:12:04,VALID,1009.74,VALID,0,VALID,92.2945,VALID,0,VALID,24.7074,VALID,88,VALID,0,
2010-02-10, 00:13:04,VALID,1009.72,VALID,0,VALID,92.2945,VALID,0,VALID,24.6684,VALID,88,VALID,0,
2010-02-10, 00:14:04,VALID,1009.72,VALID,0,VALID,92.3097,VALID,0,VALID,24.6684,VALID,88,VALID,0,
2010-02-10, 00:15:04,VALID,1009.73,VALID,0,VALID,92.3021,VALID,0,VALID,24.6489,VALID,88,VALID,0,
2010-02-10, 00:16:04,VALID,1009.71,VALID,0,VALID,92.3402,VALID,0,VALID,24.6489,VALID,88,VALID,0,
2010-02-10, 00:17:04,VALID,1009.74,VALID,0,VALID,92.2869,VALID,0,VALID,24.6099,VALID,88,VALID,0,
2010-02-10, 00:18:04,VALID,1009.72,VALID,0,VALID,92.2869,VALID,0,VALID,24.6294,VALID,88,VALID,0,
2010-02-10, 00:19:04,VALID,1009.72,VALID,0,VALID,92.1954,VALID,0,VALID,24.6684,VALID,89,VALID,0,
2010-02-10, 00:20:04,VALID,1009.74,VALID,0,VALID,92.1954,VALID,0,VALID,24.6684,VALID,89,VALID,0,
2010-02-10, 00:21:04,VALID,1009.79,VALID,0,VALID,92.1725,VALID,0,VALID,24.7074,VALID,89,VALID,0,
2010-02-10, 00:22:04,VALID,1009.78,VALID,0,VALID,92.1649,VALID,0,VALID,24.7074,VALID,89,VALID,0,
2010-02-10, 00:23:04,VALID,1009.79,VALID,0,VALID,92.1496,VALID,0,VALID,24.7269,VALID,91,VALID,0,
2010-02-10, 00:24:04,VALID,1009.78,VALID,0,VALID,92.1267,VALID,0,VALID,24.7464,VALID,115,VALID,0,
2010-02-10, 00:25:04,VALID,1009.8,VALID,0,VALID,92.1267,VALID,0,VALID,24.7678,VALID,115,VALID,0,
2010-02-10, 00:26:04,VALID,1009.82,VALID,0,VALID,92.1115,VALID,0,VALID,24.7659,VALID,114,VALID,0,
2010-02-10, 00:27:04,VALID,1009.79,VALID,0,VALID,92.1115,VALID,0,VALID,24.7659,VALID,126,VALID,0,
2010-02-10, 00:28:04,VALID,1009.78,VALID,0,VALID,92.0962,VALID,0,VALID,24.7464,VALID,134,VALID,0,
2010-02-10, 00:29:04,VALID,1009.78,VALID,0,VALID,92.081,VALID,0,VALID,24.7659,VALID,134,VALID,0,
2010-02-10, 00:30:04,VALID,1009.74,VALID,0,VALID,92.0733,VALID,0,VALID,24.7464,VALID,162,VALID,0,
2010-02-10, 00:31:04,VALID,1009.74,VALID,0,VALID,92.0962,VALID,0,VALID,24.7269,VALID,167,VALID,0,
2010-02-10, 00:32:04,VALID,1009.79,VALID,0,VALID,92.1039,VALID,0,VALID,24.7269,VALID,177,VALID,0.719141,
2010-02-10, 00:33:04,VALID,1009.77,VALID,0,VALID,92.1267,VALID,0,VALID,24.7093,VALID,177,VALID,0.724219,
2010-02-10, 00:34:04,VALID,1009.78,VALID,0,VALID,92.1115,VALID,0,VALID,24.6879,VALID,174,VALID,0.766406,
2010-02-10, 00:35:04,VALID,1009.77,VALID,0,VALID,92.1039,VALID,0,VALID,24.6489,VALID,176,VALID,0.854688,
2010-02-10, 00:36:04,VALID,1009.79,VALID,0,VALID,92.0962,VALID,0,VALID,24.6294,VALID,170,VALID,0.955469,
2010-02-10, 00:37:04,VALID,1009.76,VALID,0,VALID,92.1115,VALID,0,VALID,24.6294,VALID,173,VALID,0.798828,
2010-02-10, 00:38:04,VALID,1009.79,VALID,0,VALID,92.081,VALID,0,VALID,24.6294,VALID,165,VALID,0.484375,
2010-02-10, 00:39:04,VALID,1009.79,VALID,0,VALID,92.081,VALID,0,VALID,24.6099,VALID,165,VALID,0.567578,
2010-02-10, 00:40:04,VALID,1009.78,VALID,0,VALID,92.0733,VALID,0,VALID,24.6294,VALID,174,VALID,0,
2010-02-10, 00:41:04,VALID,1009.78,VALID,0,VALID,92.0657,VALID,0,VALID,24.6294,VALID,179,VALID,0.615234,
2010-02-10, 00:42:04,VALID,1009.76,VALID,0,VALID,92.0581,VALID,0,VALID,24.6294,VALID,179,VALID,0.365234,
2010-02-10, 00:43:04,VALID,1009.78,VALID,0,VALID,92.0276,VALID,0,VALID,24.6489,VALID,179,VALID,0.342578,
2010-02-10, 00:44:04,VALID,1009.8,VALID,0,VALID,92.0123,VALID,0,VALID,24.6684,VALID,179,VALID,0,
2010-02-10, 00:45:04,VALID,1009.78,VALID,0,VALID,91.9742,VALID,0,VALID,24.6879,VALID,179,VALID,0,
2010-02-10, 00:46:04,VALID,1009.77,VALID,0,VALID,91.9666,VALID,0,VALID,24.6684,VALID,217,VALID,0,
2010-02-10, 00:47:04,VALID,1009.76,VALID,0,VALID,91.9666,VALID,0,VALID,24.6684,VALID,217,VALID,0,
2010-02-10, 00:48:04,VALID,1009.77,VALID,0,VALID,91.9818,VALID,0,VALID,24.6879,VALID,215,VALID,0,
2010-02-10, 00:49:04,VALID,1009.78,VALID,0,VALID,91.9742,VALID,0,VALID,24.6879,VALID,214,VALID,0,
2010-02-10, 00:50:04,VALID,1009.76,VALID,0,VALID,91.9513,VALID,0,VALID,24.6879,VALID,213,VALID,0,
2010-02-10, 00:51:04,VALID,1009.77,VALID,0,VALID,91.959,VALID,0,VALID,24.6879,VALID,213,VALID,0,
2010-02-10, 00:52:04,VALID,1009.76,VALID,0,VALID,91.9208,VALID,0,VALID,24.6879,VALID,213,VALID,0,
2010-02-10, 00:53:04,VALID,1009.77,VALID,0,VALID,91.9361,VALID,0,VALID,24.7074,VALID,213,VALID,0,
2010-02-10, 00:54:04,VALID,1009.75,VALID,0,VALID,91.9132,VALID,0,VALID,24.7074,VALID,213,VALID,0,
2010-02-10, 00:55:04,VALID,1009.73,VALID,0,VALID,91.9132,VALID,0,VALID,24.7074,VALID,213,VALID,0,
2010-02-10, 00:56:04,VALID,1009.73,VALID,0,VALID,91.9056,VALID,0,VALID,24.7269,VALID,213,VALID,0,
2010-02-10, 00:57:04,VALID,1009.71,VALID,0,VALID,91.898,VALID,0.105969,VALID,24.7269,VALID,213,VALID,0,
2010-02-10, 00:58:04,VALID,1009.7,VALID,0,VALID,91.8903,VALID,0,VALID,24.7269,VALID,213,VALID,0,
2010-02-10, 00:59:04,VALID,1009.69,VALID,0,VALID,91.8903,VALID,0,VALID,24.7464,VALID,213,VALID,0,
2010-02-10, 01:00:04,VALID,1009.69,VALID,0,VALID,91.8827,VALID,0,VALID,24.7464,VALID,213,VALID,0,
2010-02-10, 01:01:04,VALID,1009.68,VALID,0,VALID,91.8675,VALID,0,VALID,24.7464,VALID,213,VALID,0,
2010-02-10, 01:02:04,VALID,1009.69,VALID,0,VALID,91.8675,VALID,0,VALID,24.725,VALID,213,VALID,0,
2010-02-10, 01:03:04,VALID,1009.68,VALID,0,VALID,91.8598,VALID,0,VALID,24.725,VALID,213,VALID,0,
2010-02-10, 01:04:04,VALID,1009.68,VALID,0,VALID,91.8598,VALID,0,VALID,24.7464,VALID,213,VALID,0,
2010-02-10, 01:05:04,VALID,1009.71,VALID,0,VALID,91.837,VALID,0,VALID,24.7464,VALID,213,VALID,0,
2010-02-10, 01:06:04,VALID,1009.65,VALID,0,VALID,91.8141,VALID,0,VALID,24.7464,VALID,213,VALID,0,
2010-02-10, 01:07:04,VALID,1009.67,VALID,0,VALID,91.8217,VALID,0,VALID,24.7659,VALID,213,VALID,0,
2010-02-10, 01:08:04,VALID,1009.65,VALID,0,VALID,91.8064,VALID,0,VALID,24.7464,VALID,213,VALID,0,
2010-02-10, 01:09:04,VALID,1009.62,VALID,0,VALID,91.8217,VALID,0,VALID,24.7659,VALID,213,VALID,0,
2010-02-10, 01:10:04,VALID,1009.61,VALID,0,VALID,91.8064,VALID,0,VALID,24.7659,VALID,213,VALID,0,
2010-02-10, 01:11:04,VALID,1009.59,VALID,0,VALID,91.8141,VALID,0,VALID,24.7445,VALID,213,VALID,0,
2010-02-10, 01:12:04,VALID,1009.61,VALID,0,VALID,91.837,VALID,0,VALID,24.7464,VALID,213,VALID,0,
2010-02-10, 01:13:04,VALID,1009.58,VALID,0,VALID,91.837,VALID,0,VALID,24.7269,VALID,213,VALID,0,
2010-02-10, 01:14:04,VALID,1009.57,VALID,0,VALID,91.837,VALID,0,VALID,24.7269,VALID,213,VALID,0,
2010-02-10, 01:15:04,VALID,1009.57,VALID,0,VALID,91.837,VALID,0,VALID,24.7269,VALID,213,VALID,0,
2010-02-10, 01:16:04,VALID,1009.59,VALID,0,VALID,91.8217,VALID,0,VALID,24.7269,VALID,213,VALID,0,
2010-02-10, 01:17:04,VALID,1009.6,VALID,0,VALID,91.837,VALID,0,VALID,24.7074,VALID,213,VALID,0,
2010-02-10, 01:18:04,VALID,1009.56,VALID,0,VALID,91.837,VALID,0,VALID,24.6879,VALID,213,VALID,0,
2010-02-10, 01:19:04,VALID,1009.56,VALID,0,VALID,91.8293,VALID,0,VALID,24.7093,VALID,213,VALID,0,
2010-02-10, 01:20:04,VALID,1009.53,VALID,0,VALID,91.8293,VALID,0,VALID,24.6879,VALID,213,VALID,0,
2010-02-10, 01:21:04,VALID,1009.48,VALID,0,VALID,91.8064,VALID,0,VALID,24.6879,VALID,213,VALID,0,
2010-02-10, 01:22:04,VALID,1009.46,VALID,0,VALID,91.7988,VALID,0,VALID,24.6879,VALID,213,VALID,0,
2010-02-10, 01:23:04,VALID,1009.45,VALID,0,VALID,91.7988,VALID,0,VALID,24.6879,VALID,213,VALID,0,
2010-02-10, 01:24:04,VALID,1009.43,VALID,0,VALID,91.7836,VALID,0,VALID,24.7074,VALID,213,VALID,0,
2010-02-10, 01:25:04,VALID,1009.39,VALID,0,VALID,91.7607,VALID,0,VALID,24.6879,VALID,213,VALID,0,
2010-02-10, 01:26:04,VALID,1009.39,VALID,0,VALID,91.7531,VALID,0,VALID,24.7074,VALID,213,VALID,0,
2010-02-10, 01:27:04,VALID,1009.35,VALID,0,VALID,91.7683,VALID,0,VALID,24.7269,VALID,213,VALID,0,
2010-02-10, 01:28:04,VALID,1009.33,VALID,0,VALID,91.7226,VALID,0,VALID,24.7269,VALID,213,VALID,0,
2010-02-10, 01:29:04,VALID,1009.28,VALID,0,VALID,91.7302,VALID,0.105969,VALID,24.7464,VALID,213,VALID,0,
2010-02-10, 01:30:04,VALID,1009.27,VALID,0,VALID,91.7302,VALID,0,VALID,24.7464,VALID,213,VALID,0,
2010-02-10, 01:31:04,VALID,1009.26,VALID,0,VALID,91.7226,VALID,0,VALID,24.7659,VALID,213,VALID,0,
2010-02-10, 01:32:04,VALID,1009.24,VALID,0,VALID,91.7149,VALID,0,VALID,24.7659,VALID,213,VALID,0,
2010-02-10, 01:33:04,VALID,1009.25,VALID,0,VALID,91.6921,VALID,0,VALID,24.7659,VALID,213,VALID,0,
2010-02-10, 01:34:04,VALID,1009.21,VALID,0,VALID,91.6997,VALID,0,VALID,24.7659,VALID,213,VALID,0,
2010-02-10, 01:35:04,VALID,1009.22,VALID,0,VALID,91.7149,VALID,0,VALID,24.7659,VALID,213,VALID,0,
2010-02-10, 01:36:04,VALID,1009.19,VALID,0,VALID,91.7073,VALID,0,VALID,24.7659,VALID,213,VALID,0,
2010-02-10, 01:37:04,VALID,1009.2,VALID,0,VALID,91.7149,VALID,0,VALID,24.7445,VALID,213,VALID,0,
2010-02-10, 01:38:04,VALID,1009.15,VALID,0,VALID,91.7226,VALID,0,VALID,24.7464,VALID,213,VALID,0,
2010-02-10, 01:39:04,VALID,1009.14,VALID,0,VALID,91.7302,VALID,0,VALID,24.7464,VALID,213,VALID,0,
2010-02-10, 01:40:04,VALID,1009.13,VALID,0,VALID,91.7149,VALID,0,VALID,24.7464,VALID,213,VALID,0,
2010-02-10, 01:41:04,VALID,1009.13,VALID,0,VALID,91.7378,VALID,0,VALID,24.7269,VALID,213,VALID,0,
2010-02-10, 01:42:04,VALID,1009.12,VALID,0,VALID,91.7683,VALID,0,VALID,24.7074,VALID,145,VALID,0,
2010-02-10, 01:43:04,VALID,1009.11,VALID,0,VALID,91.7226,VALID,0,VALID,24.7269,VALID,136,VALID,0,
2010-02-10, 01:44:04,VALID,1009.1,VALID,0,VALID,91.7073,VALID,0,VALID,24.7464,VALID,136,VALID,0,
2010-02-10, 01:45:04,VALID,1009.08,VALID,0,VALID,91.6921,VALID,0,VALID,24.7464,VALID,136,VALID,0,
2010-02-10, 01:46:04,VALID,1009.06,VALID,0,VALID,91.6844,VALID,0,VALID,24.7464,VALID,136,VALID,0,
2010-02-10, 01:47:04,VALID,1009.03,VALID,0,VALID,91.6616,VALID,0,VALID,24.7659,VALID,136,VALID,0,
2010-02-10, 01:48:04,VALID,1009.03,VALID,0,VALID,91.6616,VALID,0,VALID,24.7854,VALID,333,VALID,0,
2010-02-10, 01:49:04,VALID,1009.03,VALID,0,VALID,91.6844,VALID,0,VALID,24.7464,VALID,333,VALID,0,
2010-02-10, 01:50:04,VALID,1009.03,VALID,0,VALID,91.7149,VALID,0,VALID,24.7464,VALID,333,VALID,0,
2010-02-10, 01:51:04,VALID,1009.04,VALID,0,VALID,91.7302,VALID,0,VALID,24.7269,VALID,333,VALID,0,
2010-02-10, 01:52:04,VALID,1009.02,VALID,0,VALID,91.7302,VALID,0.105969,VALID,24.7074,VALID,333,VALID,0,
2010-02-10, 01:53:04,VALID,1009.01,VALID,0,VALID,91.7531,VALID,0,VALID,24.7093,VALID,333,VALID,0,
2010-02-10, 01:54:04,VALID,1009.01,VALID,0,VALID,91.7378,VALID,0,VALID,24.6879,VALID,333,VALID,0,
2010-02-10, 01:55:04,VALID,1008.98,VALID,0,VALID,91.7378,VALID,0,VALID,24.7093,VALID,333,VALID,0,
2010-02-10, 01:56:04,VALID,1008.97,VALID,0,VALID,91.6997,VALID,0,VALID,24.6879,VALID,333,VALID,0,
2010-02-10, 01:57:04,VALID,1008.94,VALID,0,VALID,91.7226,VALID,0,VALID,24.6879,VALID,333,VALID,0,
2010-02-10, 01:58:04,VALID,1008.97,VALID,0,VALID,91.7226,VALID,0,VALID,24.6684,VALID,333,VALID,0,
2010-02-10, 01:59:04,VALID,1008.98,VALID,0,VALID,91.7149,VALID,0,VALID,24.6684,VALID,333,VALID,0,
2010-02-10, 02:00:04,VALID,1008.96,VALID,0,VALID,91.7073,VALID,0,VALID,24.6684,VALID,333,VALID,0,
2010-02-10, 02:01:04,VALID,1008.97,VALID,0,VALID,91.6844,VALID,0,VALID,24.6879,VALID,333,VALID,0,
2010-02-10, 02:02:04,VALID,1008.97,VALID,0,VALID,91.6844,VALID,0,VALID,24.6879,VALID,333,VALID,0,
2010-02-10, 02:03:04,VALID,1008.97,VALID,0,VALID,91.6311,VALID,0,VALID,24.7269,VALID,112,VALID,0,
2010-02-10, 02:04:04,VALID,1008.91,VALID,0,VALID,91.6463,VALID,0,VALID,24.7464,VALID,116,VALID,0.455469,
2010-02-10, 02:05:04,VALID,1008.92,VALID,0,VALID,91.6463,VALID,0,VALID,24.7464,VALID,124,VALID,0.58125,
2010-02-10, 02:06:04,VALID,1008.86,VALID,0,VALID,91.6387,VALID,0,VALID,24.7464,VALID,123,VALID,0.266797,
2010-02-10, 02:07:04,VALID,1008.86,VALID,0,VALID,91.6539,VALID,0,VALID,24.7464,VALID,123,VALID,0.507422,
2010-02-10, 02:08:04,VALID,1008.86,VALID,0,VALID,91.6539,VALID,0,VALID,24.725,VALID,111,VALID,0.540234,
2010-02-10, 02:09:04,VALID,1008.88,VALID,0,VALID,91.6387,VALID,0,VALID,24.7464,VALID,111,VALID,0.184375,
2010-02-10, 02:10:04,VALID,1008.89,VALID,0,VALID,91.6234,VALID,0,VALID,24.7659,VALID,111,VALID,0,
2010-02-10, 02:11:04,VALID,1008.96,VALID,0,VALID,91.6005,VALID,0,VALID,24.7659,VALID,108,VALID,0,
2010-02-10, 02:12:04,VALID,1008.94,VALID,0,VALID,91.5929,VALID,0,VALID,24.7854,VALID,96,VALID,0,
2010-02-10, 02:13:04,VALID,1008.95,VALID,0,VALID,91.6005,VALID,0,VALID,24.7854,VALID,96,VALID,0,
2010-02-10, 02:14:04,VALID,1008.96,VALID,0,VALID,91.5929,VALID,0,VALID,24.8049,VALID,96,VALID,0,
2010-02-10, 02:15:04,VALID,1008.97,VALID,0,VALID,91.5777,VALID,0,VALID,24.8049,VALID,96,VALID,0,
2010-02-10, 02:16:04,VALID,1008.97,VALID,0,VALID,91.5929,VALID,0,VALID,24.8049,VALID,97,VALID,0,
2010-02-10, 02:17:04,VALID,1008.92,VALID,0,VALID,91.6234,VALID,0,VALID,24.7659,VALID,135,VALID,0,
2010-02-10, 02:18:04,VALID,1008.92,VALID,0,VALID,91.6158,VALID,0,VALID,24.7659,VALID,149,VALID,0,
2010-02-10, 02:19:04,VALID,1008.91,VALID,0,VALID,91.6158,VALID,0,VALID,24.7854,VALID,149,VALID,0,
2010-02-10, 02:20:04,VALID,1008.89,VALID,0,VALID,91.5929,VALID,0,VALID,24.7659,VALID,149,VALID,0,
2010-02-10, 02:21:04,VALID,1008.84,VALID,0,VALID,91.5853,VALID,0,VALID,24.7854,VALID,149,VALID,0,
2010-02-10, 02:22:04,VALID,1008.79,VALID,0,VALID,91.5929,VALID,0,VALID,24.7854,VALID,149,VALID,0,
2010-02-10, 02:23:04,VALID,1008.78,VALID,0,VALID,91.5777,VALID,0,VALID,24.7854,VALID,149,VALID,0,
2010-02-10, 02:24:04,VALID,1008.77,VALID,0,VALID,91.5929,VALID,0,VALID,24.7854,VALID,149,VALID,0,
2010-02-10, 02:25:04,VALID,1008.73,VALID,0,VALID,91.5853,VALID,0,VALID,24.7854,VALID,149,VALID,0,
2010-02-10, 02:26:04,VALID,1008.71,VALID,0,VALID,91.5777,VALID,0,VALID,24.7854,VALID,149,VALID,0,
2010-02-10, 02:27:04,VALID,1008.67,VALID,0,VALID,91.5777,VALID,0,VALID,24.7854,VALID,149,VALID,0,
2010-02-10, 02:28:04,VALID,1008.68,VALID,0,VALID,91.57,VALID,0,VALID,24.7659,VALID,149,VALID,0,
2010-02-10, 02:29:04,VALID,1008.69,VALID,0,VALID,91.5929,VALID,0,VALID,24.7659,VALID,149,VALID,0,
2010-02-10, 02:30:04,VALID,1008.65,VALID,0,VALID,91.5853,VALID,0,VALID,24.7659,VALID,149,VALID,0,
2010-02-10, 02:31:04,VALID,1008.64,VALID,0,VALID,91.5929,VALID,0,VALID,24.7659,VALID,149,VALID,0,
2010-02-10, 02:32:04,VALID,1008.64,VALID,0,VALID,91.5853,VALID,0,VALID,24.7464,VALID,149,VALID,0,
2010-02-10, 02:33:04,VALID,1008.63,VALID,0,VALID,91.57,VALID,0,VALID,24.7659,VALID,149,VALID,0,
2010-02-10, 02:34:04,VALID,1008.63,VALID,0,VALID,91.57,VALID,0,VALID,24.7464,VALID,149,VALID,0,
2010-02-10, 02:35:04,VALID,1008.62,VALID,0,VALID,91.5548,VALID,0,VALID,24.7659,VALID,149,VALID,0,
2010-02-10, 02:36:04,VALID,1008.65,VALID,0,VALID,91.5395,VALID,0,VALID,24.7854,VALID,149,VALID,0,
2010-02-10, 02:37:04,VALID,1008.64,VALID,0,VALID,91.5853,VALID,0,VALID,24.7854,VALID,149,VALID,0,
2010-02-10, 02:38:04,VALID,1008.63,VALID,0,VALID,91.5777,VALID,0,VALID,24.7659,VALID,149,VALID,0,
2010-02-10, 02:39:04,VALID,1008.66,VALID,0,VALID,91.5853,VALID,0,VALID,24.7464,VALID,149,VALID,0,
2010-02-10, 02:40:04,VALID,1008.64,VALID,0,VALID,91.5624,VALID,0,VALID,24.7678,VALID,149,VALID,0,
2010-02-10, 02:41:04,VALID,1008.64,VALID,0,VALID,91.5777,VALID,0,VALID,24.7269,VALID,149,VALID,0,
2010-02-10, 02:42:04,VALID,1008.62,VALID,0,VALID,91.5777,VALID,0,VALID,24.7269,VALID,149,VALID,0,
2010-02-10, 02:43:04,VALID,1008.65,VALID,0,VALID,91.57,VALID,0,VALID,24.7269,VALID,149,VALID,0,
2010-02-10, 02:44:04,VALID,1008.67,VALID,0,VALID,91.5624,VALID,0,VALID,24.7269,VALID,149,VALID,0,
2010-02-10, 02:45:04,VALID,1008.67,VALID,0,VALID,91.5548,VALID,0,VALID,24.7074,VALID,149,VALID,0,
2010-02-10, 02:46:04,VALID,1008.65,VALID,0,VALID,91.57,VALID,0,VALID,24.7074,VALID,149,VALID,0.671875,
2010-02-10, 02:47:04,VALID,1008.67,VALID,0,VALID,91.5548,VALID,0,VALID,24.7074,VALID,149,VALID,0.492969,
2010-02-10, 02:48:04,VALID,1008.67,VALID,0,VALID,91.57,VALID,0,VALID,24.7074,VALID,149,VALID,0.14375,
2010-02-10, 02:49:04,VALID,1008.66,VALID,0,VALID,91.5624,VALID,0,VALID,24.7074,VALID,151,VALID,0,
2010-02-10, 02:50:04,VALID,1008.62,VALID,0,VALID,91.5548,VALID,0,VALID,24.7074,VALID,166,VALID,0,
2010-02-10, 02:51:04,VALID,1008.59,VALID,0,VALID,91.5472,VALID,0,VALID,24.7074,VALID,194,VALID,0,
2010-02-10, 02:52:04,VALID,1008.56,VALID,0,VALID,91.5395,VALID,0,VALID,24.7074,VALID,184,VALID,0,
2010-02-10, 02:53:04,VALID,1008.56,VALID,0,VALID,91.5319,VALID,0,VALID,24.7269,VALID,199,VALID,0,
2010-02-10, 02:54:04,VALID,1008.51,VALID,0,VALID,91.5243,VALID,0,VALID,24.7269,VALID,219,VALID,0,
2010-02-10, 02:55:04,VALID,1008.53,VALID,0,VALID,91.509,VALID,0,VALID,24.7055,VALID,222,VALID,0,
2010-02-10, 02:56:04,VALID,1008.51,VALID,0,VALID,91.509,VALID,0,VALID,24.7464,VALID,222,VALID,0,
2010-02-10, 02:57:04,VALID,1008.46,VALID,0,VALID,91.4938,VALID,0,VALID,24.7483,VALID,222,VALID,0,
2010-02-10, 02:58:04,VALID,1008.46,VALID,0,VALID,91.5014,VALID,0,VALID,24.7678,VALID,222,VALID,0,
2010-02-10, 02:59:04,VALID,1008.44,VALID,0,VALID,91.5167,VALID,0,VALID,24.7269,VALID,222,VALID,0,
2010-02-10, 03:00:04,VALID,1008.43,VALID,0,VALID,91.5243,VALID,0,VALID,24.7269,VALID,222,VALID,0,
2010-02-10, 03:01:04,VALID,1008.39,VALID,0,VALID,91.5167,VALID,0,VALID,24.7074,VALID,222,VALID,0,
2010-02-10, 03:02:04,VALID,1008.41,VALID,0,VALID,91.509,VALID,0,VALID,24.7288,VALID,222,VALID,0,
2010-02-10, 03:03:04,VALID,1008.38,VALID,0,VALID,91.509,VALID,0,VALID,24.7269,VALID,222,VALID,0,
2010-02-10, 03:04:04,VALID,1008.38,VALID,0,VALID,91.5243,VALID,0,VALID,24.7269,VALID,222,VALID,0,
2010-02-10, 03:05:04,VALID,1008.36,VALID,0,VALID,91.5167,VALID,0,VALID,24.7074,VALID,222,VALID,0,
2010-02-10, 03:06:04,VALID,1008.32,VALID,0,VALID,91.5014,VALID,0,VALID,24.7074,VALID,222,VALID,0,
2010-02-10, 03:07:04,VALID,1008.33,VALID,0,VALID,91.5319,VALID,0,VALID,24.7074,VALID,222,VALID,0,
2010-02-10, 03:08:04,VALID,1008.33,VALID,0,VALID,91.5167,VALID,0,VALID,24.7093,VALID,222,VALID,0,
2010-02-10, 03:09:04,VALID,1008.32,VALID,0,VALID,91.509,VALID,0,VALID,24.6879,VALID,222,VALID,0,
2010-02-10, 03:10:04,VALID,1008.31,VALID,0,VALID,91.5014,VALID,0,VALID,24.7288,VALID,222,VALID,0,
2010-02-10, 03:11:04,VALID,1008.31,VALID,0,VALID,91.4785,VALID,0,VALID,24.7093,VALID,222,VALID,0,
2010-02-10, 03:12:04,VALID,1008.3,VALID,0,VALID,91.4862,VALID,0,VALID,24.7074,VALID,219,VALID,0,
2010-02-10, 03:13:04,VALID,1008.33,VALID,0,VALID,91.4862,VALID,0,VALID,24.6879,VALID,219,VALID,0,
2010-02-10, 03:14:04,VALID,1008.31,VALID,0,VALID,91.4709,VALID,0,VALID,24.6879,VALID,219,VALID,0,
2010-02-10, 03:15:04,VALID,1008.34,VALID,0,VALID,91.4862,VALID,0,VALID,24.6684,VALID,219,VALID,0,
2010-02-10, 03:16:04,VALID,1008.32,VALID,0,VALID,91.509,VALID,0,VALID,24.6489,VALID,219,VALID,0,
2010-02-10, 03:17:04,VALID,1008.34,VALID,0,VALID,91.5167,VALID,0,VALID,24.6489,VALID,219,VALID,0,
2010-02-10, 03:18:04,VALID,1008.39,VALID,0,VALID,91.5014,VALID,0,VALID,24.6489,VALID,219,VALID,0,
2010-02-10, 03:19:04,VALID,1008.39,VALID,0,VALID,91.4938,VALID,0,VALID,24.6294,VALID,219,VALID,0,
2010-02-10, 03:20:04,VALID,1008.38,VALID,0,VALID,91.5014,VALID,0,VALID,24.6294,VALID,219,VALID,0,
2010-02-10, 03:21:04,VALID,1008.4,VALID,0,VALID,91.4785,VALID,0,VALID,24.6294,VALID,219,VALID,0,
2010-02-10, 03:22:04,VALID,1008.41,VALID,0,VALID,91.4785,VALID,0,VALID,24.6508,VALID,219,VALID,0,
2010-02-10, 03:23:04,VALID,1008.42,VALID,0,VALID,91.4557,VALID,0,VALID,24.6489,VALID,219,VALID,0,
2010-02-10, 03:24:04,VALID,1008.42,VALID,0,VALID,91.4557,VALID,0,VALID,24.6684,VALID,219,VALID,0,
2010-02-10, 03:25:04,VALID,1008.45,VALID,0,VALID,91.4633,VALID,0,VALID,24.6684,VALID,219,VALID,0,
2010-02-10, 03:26:04,VALID,1008.44,VALID,0,VALID,91.4862,VALID,0,VALID,24.6489,VALID,219,VALID,0,
2010-02-10, 03:27:04,VALID,1008.46,VALID,0,VALID,91.4862,VALID,0,VALID,24.6508,VALID,222,VALID,0,
2010-02-10, 03:28:04,VALID,1008.46,VALID,0,VALID,91.4938,VALID,0,VALID,24.6294,VALID,222,VALID,0,
2010-02-10, 03:29:04,VALID,1008.46,VALID,0,VALID,91.5243,VALID,0,VALID,24.6099,VALID,23,VALID,0,
2010-02-10, 03:30:04,VALID,1008.45,VALID,0,VALID,91.509,VALID,0,VALID,24.5905,VALID,23,VALID,0,
2010-02-10, 03:31:04,VALID,1008.46,VALID,0,VALID,91.509,VALID,0.105969,VALID,24.5905,VALID,23,VALID,0,
2010-02-10, 03:32:04,VALID,1008.45,VALID,0,VALID,91.509,VALID,0,VALID,24.5905,VALID,23,VALID,0,
2010-02-10, 03:33:04,VALID,1008.45,VALID,0,VALID,91.4785,VALID,0,VALID,24.571,VALID,23,VALID,0,
2010-02-10, 03:34:04,VALID,1008.44,VALID,0,VALID,91.4785,VALID,0,VALID,24.571,VALID,23,VALID,0,
2010-02-10, 03:35:04,VALID,1008.47,VALID,0,VALID,91.4938,VALID,0,VALID,24.5923,VALID,23,VALID,0,
2010-02-10, 03:36:04,VALID,1008.48,VALID,0,VALID,91.4709,VALID,0,VALID,24.5905,VALID,23,VALID,0,
2010-02-10, 03:37:04,VALID,1008.49,VALID,0,VALID,91.4938,VALID,0,VALID,24.571,VALID,23,VALID,0,
2010-02-10, 03:38:04,VALID,1008.48,VALID,0,VALID,91.4862,VALID,0,VALID,24.571,VALID,23,VALID,0,
2010-02-10, 03:39:04,VALID,1008.53,VALID,0,VALID,91.4862,VALID,0,VALID,24.5515,VALID,23,VALID,0,
2010-02-10, 03:40:04,VALID,1008.55,VALID,0,VALID,91.4938,VALID,0,VALID,24.5515,VALID,23,VALID,0,
2010-02-10, 03:41:04,VALID,1008.55,VALID,0,VALID,91.4785,VALID,0,VALID,24.5515,VALID,39,VALID,0,
2010-02-10, 03:42:04,VALID,1008.57,VALID,0,VALID,91.4709,VALID,0,VALID,24.532,VALID,46,VALID,0,
2010-02-10, 03:43:04,VALID,1008.57,VALID,0,VALID,91.4785,VALID,0,VALID,24.5515,VALID,51,VALID,0,
2010-02-10, 03:44:04,VALID,1008.57,VALID,0,VALID,91.4862,VALID,0.105969,VALID,24.532,VALID,49,VALID,0,
2010-02-10, 03:45:04,VALID,1008.59,VALID,0,VALID,91.509,VALID,0,VALID,24.532,VALID,42,VALID,0,
2010-02-10, 03:46:04,VALID,1008.56,VALID,0,VALID,91.5243,VALID,0,VALID,24.5125,VALID,78,VALID,0,
2010-02-10, 03:47:04,VALID,1008.58,VALID,0,VALID,91.5395,VALID,0,VALID,24.493,VALID,67,VALID,0.56875,
2010-02-10, 03:48:04,VALID,1008.58,VALID,0,VALID,91.5243,VALID,0,VALID,24.4735,VALID,82,VALID,0.483984,
2010-02-10, 03:49:04,VALID,1008.61,VALID,0,VALID,91.5319,VALID,0,VALID,24.454,VALID,78,VALID,0.575781,
2010-02-10, 03:50:04,VALID,1008.62,VALID,0,VALID,91.5167,VALID,0,VALID,24.454,VALID,73,VALID,0.410547,
2010-02-10, 03:51:04,VALID,1008.64,VALID,0,VALID,91.509,VALID,0,VALID,24.454,VALID,72,VALID,0.415234,
2010-02-10, 03:52:04,VALID,1008.67,VALID,0,VALID,91.5167,VALID,0,VALID,24.454,VALID,72,VALID,0,
2010-02-10, 03:53:04,VALID,1008.66,VALID,0,VALID,91.4785,VALID,0,VALID,24.4735,VALID,72,VALID,0,
2010-02-10, 03:54:04,VALID,1008.68,VALID,0,VALID,91.4785,VALID,0,VALID,24.4735,VALID,72,VALID,0,
2010-02-10, 03:55:04,VALID,1008.72,VALID,0,VALID,91.4785,VALID,0.105969,VALID,24.4522,VALID,73,VALID,0,
2010-02-10, 03:56:04,VALID,1008.73,VALID,0,VALID,91.4709,VALID,0,VALID,24.4735,VALID,76,VALID,0,
2010-02-10, 03:57:04,VALID,1008.73,VALID,0,VALID,91.4557,VALID,0,VALID,24.454,VALID,89,VALID,0,
2010-02-10, 03:58:04,VALID,1008.73,VALID,0,VALID,91.4938,VALID,0,VALID,24.454,VALID,91,VALID,0,